This demonstration page uses our WeatherBlox Daily Observations layout. Learn more.

38.89511, -77.03637

Hourly Observations for January 30, 2016

Temp ( °F °C ) Dew Point ( °F °C ) Humidity (%) Winds ( mph kmh ) Pressure ( in mb ) Visibility ( mi km ) Precip ( " mm )
12:52 am 00:52 Clear 30 -1.1 15 -9.4 54 54 WNW 7 11 30.04 1017 10 16.0934 0 0
1:52 am 01:52 Clear 31 -0.6 15 -9.4 52 52 WNW 6 9 30.06 1018 10 16.0934 0 0
2:52 am 02:52 Clear 30 -1.1 15 -9.4 54 54 Calm 30.1 1019 10 16.0934 0 0
3:52 am 03:52 Clear 30 -1.1 15 -9.4 54 54 Calm 30.11 1020 10 16.0934 0 0
4:52 am 04:52 Clear 29 -1.7 19 -7.2 66 66 Calm 30.1 1019 10 16.0934 0 0
5:52 am 05:52 Clear 27 -2.8 18 -7.8 69 69 Calm 30.12 1020 10 16.0934 0 0
6:52 am 06:52 Mostly Clear 25 -3.9 19 -7.2 78 78 SSW 5 7 30.12 1020 10 16.0934 0 0
7:52 am 07:52 Mostly Sunny 27 -2.8 19 -7.2 72 72 Calm 30.16 1021 10 16.0934 0 0
8:52 am 08:52 Partly Cloudy 29 -1.7 20 -6.7 69 69 S 6 9 30.15 1021 10 16.0934 0 0
9:52 am 09:52 Partly Cloudy 31 -0.6 20 -6.7 64 64 S 7 11 30.15 1021 10 16.0934 0 0
10:52 am 10:52 Partly Cloudy 35 1.7 19 -7.2 52 52 S 8 13 30.16 1021 10 16.0934 0 0
11:52 am 11:52 Mostly Cloudy 37 2.8 22 -5.6 54 54 S 9 15 30.13 1020 10 16.0934 0 0
12:52 pm 12:52 Partly Cloudy 39 3.9 22 -5.6 50 50 S 8 13 30.11 1020 10 16.0934 0 0
1:52 pm 13:52 Partly Cloudy 41 5 21 -6.1 45 45 S 12 19 30.05 1018 10 16.0934 0 0
2:52 pm 14:52 Partly Cloudy 40 4.4 24 -4.4 53 53 S 13 20 30.04 1017 10 16.0934 0 0
3:52 pm 15:52 Partly Cloudy 41 5 24 -4.4 51 51 S 10 17 30.03 1017 10 16.0934 0 0
4:52 pm 16:52 Mostly Sunny 40 4.4 26 -3.3 58 58 S 12 19 30.02 1017 10 16.0934 0 0
5:52 pm 17:52 Mostly Clear 41 5 25 -3.9 53 53 S 12 19 30.03 1017 10 16.0934 0 0
6:52 pm 18:52 Clear 40 4.4 24 -4.4 53 53 SSW 8 13 30.03 1017 10 16.0934 0 0
7:52 pm 19:52 Clear 40 4.4 24 -4.4 53 53 S 9 15 30.03 1017 10 16.0934 0 0
8:52 pm 20:52 Clear 39 3.9 25 -3.9 57 57 S 9 15 30.02 1017 10 16.0934 0 0
9:52 pm 21:52 Clear 41 5 23 -5 49 49 S 14 22 30.01 1016 10 16.0934 0 0
10:52 pm 22:52 Mostly Clear 40 4.4 25 -3.9 55 55 S 15 24 30 1016 10 16.0934 0 0
11:52 pm 23:52 Mostly Clear 40 4.4 25 -3.9 55 55 S 12 19 30 1016 10 16.0934 0 0

Powered by AerisWeather